Regional Weather Roundup
Issued by NWS Nashville, TN

Current Version | Previous Version | Text Only | Print | Product List | Glossary On
Versions: 1 2 3 4 5 6 7 8 9 10 11 12 13 14 15 16 17 18 19 20 21 22 23 24 25 26 27 28 29 30 31 32 33 34 35 36 37 38 39 40 41 42 43 44 45 46 47 48 49 50
000
ASUS44 KOHX 280915
RWROHX
MIDDLE TENNESSEE HOURLY WEATHER ROUNDUP
NATIONAL WEATHER SERVICE NASHVILLE TN
400 AM CDT MON JUL 28 2014

NOTE: "FAIR" INDICATES FEW OR NO CLOUDS BELOW 12,000 FEET WITH
NO SIGNIFICANT WEATHER AND/OR OBSTRUCTIONS TO VISIBILITY.

* THESE REPORTS ARE NOT UNDER NWS QUALITY CONTROL AND MAY NOT
  REPORT WEATHER SUCH AS PRECIPITATION AND FOG.


TNZ005>011-023>034-057-059-062>066-078-080-281000
...NORTHERN MIDDLE TENNESSEE...

CITY           SKY/WX    TMP DP  RH WIND       PRES   REMARKS
CLARKSVILLE    CLEAR     70  57  63 NW7       29.96S
CROSSVILLE     LGT RAIN  68  65  90 SW3       29.98F VSB 3/4
DICKSON        CLEAR     66  59  77 N7        29.97R
LEBANON        CLEAR     68  67  96 CALM      29.94R
LIVINGSTON       N/A     67  66  96 CALM      29.96
NASHVILLE      CLEAR     70  63  78 N7        29.96R
WEST NASHVILLE   N/A     70  70 100 CALM      29.96R
PORTLAND       CLEAR     66  61  82 CALM      29.95S
SMYRNA         CLEAR     69  67  93 N9        29.96R
SPARTA         CLOUDY    66  66 100 CALM      29.95R VSB 1/4
$$
TNZ056-058-060-061-075>077-079-093>097-281000
...SOUTHERN MIDDLE TENNESSEE...

CITY           SKY/WX    TMP DP  RH WIND       PRES   REMARKS
COLUMBIA       CLEAR     73  66  78 CALM      29.96R
FAYETTEVILLE   CLEAR     73  68  83 N7        29.96S
LEWISBURG      CLEAR     72  68  87 CALM      29.96R
MCMINNVILLE    PTCLDY    72  72 100 CALM      29.96R
MURFREESBORO   CLEAR     72  66  81 N6        29.95R
SHELBYVILLE    MOCLDY    73  68  83 N6        29.96S
TULLAHOMA      CLEAR     70  66  88 NW5       29.97S
WINCHESTER     CLOUDY    73  72  94 CALM      29.96R
$$


...KEY TO REMARKS...
VSB - VISIBILITY IN MILES
WCI - WIND CHILL INDEX
HX  - HEAT INDEX




USA.gov is the U.S. government's official web portal to all federal, state and local government web resources and services.